Tracking 19634 objects as of 22-May-2019
HD Live streaming from Space Station
objects crossing your sky now

COSMOS 1589

Track COSMOS 1589 now!
10-day predictions
COSMOS 1589 is classified as:


NORAD ID: 15171
Int'l Code: 1984-084A
Perigee: 1,500.2 km
Apogee: 1,508.6 km
Inclination: 82.6 °
Period: 115.9 minutes
Semi major axis: 7875 km
RCS: 12.0988 m2 (large)
Launch date: August 8, 1984
Source: Commonwealth of Independent States (former USSR) (CIS)
Launch site: PLESETSK MISSILE AND SPACE COMPLEX (PKMTR)
aabbcc
Your satellite tracking list
Your tracking list is empty




NASA's NSSDC Master Catalog

Two Line Element Set (TLE):
1 15171U 84084A   19141.96560483 -.00000001 +00000-0 -82788-4 0  9996
2 15171 082.5952 299.2938 0005319 268.2791 207.5714 12.42204947577126
Source of the keplerian elements: AFSPC